Year,Month,Day,Hour,Minute,Value (Times are PST for temperature in C)
2016,08,15,00,00,18.00
2016,08,15,00,01,17.90
2016,08,15,00,02,17.90
2016,08,15,00,03,17.90
2016,08,15,00,04,17.90
2016,08,15,00,05,17.90
2016,08,15,00,06,17.90
2016,08,15,00,07,17.90
2016,08,15,00,08,17.80
2016,08,15,00,09,17.80
2016,08,15,00,10,17.80
2016,08,15,00,11,17.80
2016,08,15,00,12,17.80
2016,08,15,00,13,17.80
2016,08,15,00,14,17.80
2016,08,15,00,15,17.80
2016,08,15,00,16,17.80
2016,08,15,00,17,17.70
2016,08,15,00,18,17.70
2016,08,15,00,19,17.70
2016,08,15,00,20,17.70
2016,08,15,00,21,17.70
2016,08,15,00,22,17.70
2016,08,15,00,23,17.70
2016,08,15,00,24,17.70
2016,08,15,00,25,17.70
2016,08,15,00,26,17.70
2016,08,15,00,27,17.70
2016,08,15,00,28,17.60
2016,08,15,00,29,17.60
2016,08,15,00,30,17.60
2016,08,15,00,32,17.60
2016,08,15,00,33,17.60
2016,08,15,00,34,17.60
2016,08,15,00,35,17.60
2016,08,15,00,36,17.60
2016,08,15,00,37,17.60
2016,08,15,00,38,17.60
2016,08,15,00,39,17.50
2016,08,15,00,40,17.50
2016,08,15,00,41,17.50
2016,08,15,00,42,17.40
2016,08,15,00,43,17.40
2016,08,15,00,44,17.40
2016,08,15,00,45,17.40
2016,08,15,00,46,17.40
2016,08,15,00,47,17.30
2016,08,15,00,48,17.30
2016,08,15,00,49,17.30
2016,08,15,00,50,17.30
2016,08,15,00,51,17.30
2016,08,15,00,52,17.30
2016,08,15,00,53,17.30
2016,08,15,00,54,17.30
2016,08,15,00,55,17.20
2016,08,15,00,56,17.20
2016,08,15,00,57,17.20
2016,08,15,00,58,17.20
2016,08,15,00,59,17.20
2016,08,15,01,00,17.20
2016,08,15,01,01,17.20
2016,08,15,01,02,17.20
2016,08,15,01,03,17.20
2016,08,15,01,04,17.20
2016,08,15,01,05,17.10
2016,08,15,01,06,17.10
2016,08,15,01,07,17.10
2016,08,15,01,08,17.10
2016,08,15,01,09,17.10
2016,08,15,01,10,17.10
2016,08,15,01,11,17.10
2016,08,15,01,12,17.10
2016,08,15,01,13,17.10
2016,08,15,01,14,17.10
2016,08,15,01,15,17.10
2016,08,15,01,16,17.10
2016,08,15,01,17,17.10
2016,08,15,01,18,17.00
2016,08,15,01,19,17.00
2016,08,15,01,20,17.00
2016,08,15,01,21,17.00
2016,08,15,01,22,16.90
2016,08,15,01,23,16.90
2016,08,15,01,24,16.90
2016,08,15,01,25,16.90
2016,08,15,01,26,16.90
2016,08,15,01,27,16.90
2016,08,15,01,28,16.90
2016,08,15,01,29,16.90
2016,08,15,01,30,16.90
2016,08,15,01,31,16.90
2016,08,15,01,32,16.90
2016,08,15,01,33,16.80
2016,08,15,01,34,16.80
2016,08,15,01,35,16.80
2016,08,15,01,36,16.80
2016,08,15,01,37,16.80
2016,08,15,01,38,16.80
2016,08,15,01,39,16.80
2016,08,15,01,40,16.80
2016,08,15,01,41,16.80
2016,08,15,01,42,16.80
2016,08,15,01,43,16.80
2016,08,15,01,44,16.80
2016,08,15,01,45,16.70
2016,08,15,01,46,16.70
2016,08,15,01,47,16.70
2016,08,15,01,48,16.70
2016,08,15,01,49,16.70
2016,08,15,01,50,16.70
2016,08,15,01,51,16.70
2016,08,15,01,52,16.70
2016,08,15,01,53,16.60
2016,08,15,01,54,16.60
2016,08,15,01,55,16.60
2016,08,15,01,56,16.60
2016,08,15,01,57,16.60
2016,08,15,01,58,16.60
2016,08,15,01,59,16.60
2016,08,15,02,00,16.60
2016,08,15,02,01,16.50
2016,08,15,02,02,16.50
2016,08,15,02,03,16.50
2016,08,15,02,04,16.50
2016,08,15,02,05,16.40
2016,08,15,02,06,16.40
2016,08,15,02,07,16.40
2016,08,15,02,08,16.40
2016,08,15,02,09,16.40
2016,08,15,02,10,16.40
2016,08,15,02,11,16.40
2016,08,15,02,12,16.40
2016,08,15,02,13,16.40
2016,08,15,02,14,16.40
2016,08,15,02,15,16.40
2016,08,15,02,16,16.40
2016,08,15,02,17,16.40
2016,08,15,02,18,16.40
2016,08,15,02,19,16.40
2016,08,15,02,20,16.40
2016,08,15,02,21,16.40
2016,08,15,02,22,16.40
2016,08,15,02,23,16.40
2016,08,15,02,24,16.40
2016,08,15,02,25,16.40
2016,08,15,02,27,16.40
2016,08,15,02,28,16.40
2016,08,15,02,29,16.30
2016,08,15,02,30,16.30
2016,08,15,02,31,16.30
2016,08,15,02,32,16.30
2016,08,15,02,33,16.30
2016,08,15,02,34,16.30
2016,08,15,02,35,16.20
2016,08,15,02,36,16.20
2016,08,15,02,37,16.20
2016,08,15,02,38,16.20
2016,08,15,02,39,16.20
2016,08,15,02,40,16.20
2016,08,15,02,41,16.20
2016,08,15,02,42,16.10
2016,08,15,02,43,16.10
2016,08,15,02,44,16.10
2016,08,15,02,45,16.10
2016,08,15,02,46,16.10
2016,08,15,02,47,16.10
2016,08,15,02,48,16.10
2016,08,15,02,49,16.10
2016,08,15,02,50,16.10
2016,08,15,02,51,16.10
2016,08,15,02,52,16.10
2016,08,15,02,53,16.10
2016,08,15,02,54,16.10
2016,08,15,02,55,16.10
2016,08,15,02,56,16.10
2016,08,15,02,57,16.10
2016,08,15,02,58,16.10
2016,08,15,02,59,16.10
2016,08,15,03,00,16.10
2016,08,15,03,01,16.10
2016,08,15,03,02,16.10
2016,08,15,03,03,16.10
2016,08,15,03,04,16.10
2016,08,15,03,05,16.10
2016,08,15,03,06,16.10
2016,08,15,03,07,16.10
2016,08,15,03,08,16.00
2016,08,15,03,09,16.00
2016,08,15,03,10,16.00
2016,08,15,03,11,16.00
2016,08,15,03,12,16.00
2016,08,15,03,13,16.00
2016,08,15,03,15,15.90
2016,08,15,03,16,15.90
2016,08,15,03,18,15.90
2016,08,15,03,19,15.90
2016,08,15,03,20,15.90
2016,08,15,03,21,15.90
2016,08,15,03,22,15.90
2016,08,15,03,23,15.90
2016,08,15,03,24,15.80
2016,08,15,03,25,15.80
2016,08,15,03,26,15.80
2016,08,15,03,27,15.80
2016,08,15,03,28,15.80
2016,08,15,03,30,15.80
2016,08,15,03,31,15.70
2016,08,15,03,32,15.80
2016,08,15,03,33,15.70
2016,08,15,03,34,15.70
2016,08,15,03,35,15.70
2016,08,15,03,37,15.70
2016,08,15,03,38,15.70
2016,08,15,03,39,15.70
2016,08,15,03,40,15.70
2016,08,15,03,41,15.70
2016,08,15,03,42,15.70
2016,08,15,03,43,15.70
2016,08,15,03,44,15.70
2016,08,15,03,45,15.60
2016,08,15,03,46,15.60
2016,08,15,03,47,15.60
2016,08,15,03,48,15.60
2016,08,15,03,49,15.60
2016,08,15,03,50,15.60
2016,08,15,03,51,15.60
2016,08,15,03,52,15.60
2016,08,15,03,53,15.60
2016,08,15,03,54,15.50
2016,08,15,03,55,15.50
2016,08,15,03,56,15.50
2016,08,15,03,57,15.50
2016,08,15,03,58,15.50
2016,08,15,03,59,15.50
2016,08,15,04,00,15.40
2016,08,15,04,01,15.40
2016,08,15,04,02,15.40
2016,08,15,04,03,15.40
2016,08,15,04,04,15.40
2016,08,15,04,05,15.40
2016,08,15,04,06,15.40
2016,08,15,04,07,15.40
2016,08,15,04,08,15.40
2016,08,15,04,09,15.40
2016,08,15,04,10,15.30
2016,08,15,04,11,15.30
2016,08,15,04,12,15.30
2016,08,15,04,13,15.30
2016,08,15,04,14,15.30
2016,08,15,04,15,15.30
2016,08,15,04,16,15.30
2016,08,15,04,18,15.20
2016,08,15,04,19,15.20
2016,08,15,04,21,15.20
2016,08,15,04,22,15.20
2016,08,15,04,23,15.20
2016,08,15,04,24,15.20
2016,08,15,04,25,15.20
2016,08,15,04,26,15.20
2016,08,15,04,27,15.20
2016,08,15,04,28,15.20
2016,08,15,04,29,15.10
2016,08,15,04,30,15.10
2016,08,15,04,31,15.10
2016,08,15,04,32,15.10
2016,08,15,04,33,15.10
2016,08,15,04,34,15.10
2016,08,15,04,35,15.10
2016,08,15,04,36,15.10
2016,08,15,04,37,15.10
2016,08,15,04,38,15.10
2016,08,15,04,39,15.00
2016,08,15,04,40,15.00
2016,08,15,04,41,15.00
2016,08,15,04,42,15.00
2016,08,15,04,43,15.00
2016,08,15,04,44,15.00
2016,08,15,04,45,14.90
2016,08,15,04,46,14.90
2016,08,15,04,47,14.90
2016,08,15,04,48,14.90
2016,08,15,04,49,14.90
2016,08,15,04,50,14.90
2016,08,15,04,51,14.90
2016,08,15,04,52,14.90
2016,08,15,04,53,14.90
2016,08,15,04,54,14.80
2016,08,15,04,55,14.80
2016,08,15,04,56,14.80
2016,08,15,04,57,14.80
2016,08,15,04,58,14.80
2016,08,15,04,59,14.80
2016,08,15,05,00,14.80
2016,08,15,05,01,14.80
2016,08,15,05,02,14.80
2016,08,15,05,03,14.80
2016,08,15,05,04,14.80
2016,08,15,05,05,14.70
2016,08,15,05,06,14.70
2016,08,15,05,07,14.70
2016,08,15,05,08,14.70
2016,08,15,05,09,14.70
2016,08,15,05,10,14.70
2016,08,15,05,11,14.70
2016,08,15,05,12,14.70
2016,08,15,05,13,14.70
2016,08,15,05,16,14.60
2016,08,15,05,18,14.60
2016,08,15,05,19,14.60
2016,08,15,05,20,14.60
2016,08,15,05,21,14.60
2016,08,15,05,22,14.50
2016,08,15,05,23,14.50
2016,08,15,05,24,14.50
2016,08,15,05,25,14.50
2016,08,15,05,26,14.50
2016,08,15,05,27,14.50
2016,08,15,05,28,14.40
2016,08,15,05,29,14.40
2016,08,15,05,30,14.40
2016,08,15,05,31,14.40
2016,08,15,05,32,14.40
2016,08,15,05,33,14.40
2016,08,15,05,34,14.40
2016,08,15,05,35,14.40
2016,08,15,05,36,14.40
2016,08,15,05,37,14.40
2016,08,15,05,38,14.40
2016,08,15,05,39,14.40
2016,08,15,05,40,14.30
2016,08,15,05,41,14.30
2016,08,15,05,42,14.30
2016,08,15,05,43,14.30
2016,08,15,05,44,14.30
2016,08,15,05,45,14.30
2016,08,15,05,46,14.30
2016,08,15,05,47,14.30
2016,08,15,05,50,14.40
2016,08,15,05,51,14.40
2016,08,15,05,52,14.40
2016,08,15,05,53,14.40
2016,08,15,05,54,14.40
2016,08,15,05,55,14.30
2016,08,15,05,56,14.30
2016,08,15,05,57,14.30
2016,08,15,05,58,14.30
2016,08,15,05,59,14.30
2016,08,15,06,00,14.30
2016,08,15,06,01,14.30
2016,08,15,06,02,14.30
2016,08,15,06,03,14.30
2016,08,15,06,04,14.30
2016,08,15,06,05,14.30
2016,08,15,06,06,14.30
2016,08,15,06,07,14.20
2016,08,15,06,08,14.20
2016,08,15,06,09,14.20
2016,08,15,06,10,14.20
2016,08,15,06,11,14.20
2016,08,15,06,12,14.20
2016,08,15,06,13,14.20
2016,08,15,06,14,14.20
2016,08,15,06,15,14.20
2016,08,15,06,16,14.20
2016,08,15,06,17,14.20
2016,08,15,06,18,14.20
2016,08,15,06,19,14.20
2016,08,15,06,20,14.20
2016,08,15,06,21,14.10
2016,08,15,06,22,14.10
2016,08,15,06,23,14.10
2016,08,15,06,24,14.10
2016,08,15,06,25,14.10
2016,08,15,06,26,14.10
2016,08,15,06,27,14.10
2016,08,15,06,28,14.10
2016,08,15,06,29,14.10
2016,08,15,06,30,14.10
2016,08,15,06,31,14.10
2016,08,15,06,32,14.10
2016,08,15,06,33,14.10
2016,08,15,06,34,14.10
2016,08,15,06,35,14.10
2016,08,15,06,36,14.10
2016,08,15,06,37,14.10
2016,08,15,06,38,14.10
2016,08,15,06,39,14.10
2016,08,15,06,40,14.10
2016,08,15,06,41,14.10
2016,08,15,06,42,14.10
2016,08,15,06,43,14.10
2016,08,15,06,44,14.10
2016,08,15,06,45,14.10
2016,08,15,06,46,14.10
2016,08,15,06,47,14.00
2016,08,15,06,48,14.10
2016,08,15,06,49,14.00
2016,08,15,06,50,14.00
2016,08,15,06,51,14.00
2016,08,15,06,52,14.00
2016,08,15,06,53,14.00
2016,08,15,06,54,14.00
2016,08,15,06,55,14.00
2016,08,15,06,56,14.10
2016,08,15,06,57,14.10
2016,08,15,06,58,14.10
2016,08,15,06,59,14.10
2016,08,15,07,00,14.10
2016,08,15,07,01,14.10
2016,08,15,07,02,14.10
2016,08,15,07,03,14.10
2016,08,15,07,04,14.10
2016,08,15,07,05,14.10
2016,08,15,07,06,14.10
2016,08,15,07,07,14.10
2016,08,15,07,08,14.20
2016,08,15,07,09,14.20
2016,08,15,07,10,14.20
2016,08,15,07,11,14.20
2016,08,15,07,12,14.20
2016,08,15,07,13,14.20
2016,08,15,07,14,14.20
2016,08,15,07,15,14.20
2016,08,15,07,16,14.30
2016,08,15,07,17,14.30
2016,08,15,07,18,14.30
2016,08,15,07,19,14.30
2016,08,15,07,20,14.40
2016,08,15,07,21,14.40
2016,08,15,07,22,14.40
2016,08,15,07,23,14.40
2016,08,15,07,24,14.50
2016,08,15,07,25,14.60
2016,08,15,07,26,14.60
2016,08,15,07,27,14.60
2016,08,15,07,28,14.70
2016,08,15,07,29,14.70
2016,08,15,07,30,14.80
2016,08,15,07,31,14.80
2016,08,15,07,32,14.80
2016,08,15,07,33,14.90
2016,08,15,07,34,15.00
2016,08,15,07,35,15.10
2016,08,15,07,36,15.10
2016,08,15,07,37,15.20
2016,08,15,07,38,15.20
2016,08,15,07,39,15.30
2016,08,15,07,40,15.30
2016,08,15,07,41,15.40
2016,08,15,07,43,15.50
2016,08,15,07,44,15.60
2016,08,15,07,45,15.60
2016,08,15,07,46,15.70
2016,08,15,07,47,15.70
2016,08,15,07,48,15.80
2016,08,15,07,49,15.80
2016,08,15,07,50,15.90
2016,08,15,07,51,15.90
2016,08,15,07,52,16.00
2016,08,15,07,53,16.00
2016,08,15,07,54,16.10
2016,08,15,07,55,16.10
2016,08,15,07,56,16.10
2016,08,15,07,57,16.10
2016,08,15,07,58,16.10
2016,08,15,07,59,16.10
2016,08,15,08,00,16.10
2016,08,15,08,01,16.20
2016,08,15,08,02,16.20
2016,08,15,08,03,16.20
2016,08,15,08,04,16.30
2016,08,15,08,05,16.30
2016,08,15,08,06,16.30
2016,08,15,08,07,16.40
2016,08,15,08,08,16.40
2016,08,15,08,09,16.60
2016,08,15,08,10,16.60
2016,08,15,08,11,16.70
2016,08,15,08,12,16.70
2016,08,15,08,13,16.80
2016,08,15,08,14,16.90
2016,08,15,08,15,16.90
2016,08,15,08,16,17.10
2016,08,15,08,17,17.20
2016,08,15,08,18,17.20
2016,08,15,08,19,17.30
2016,08,15,08,20,17.40
2016,08,15,08,21,17.40
2016,08,15,08,22,17.60
2016,08,15,08,23,17.60
2016,08,15,08,24,17.70
2016,08,15,08,25,17.70
2016,08,15,08,26,17.70
2016,08,15,08,27,17.80
2016,08,15,08,28,17.80
2016,08,15,08,29,17.80
2016,08,15,08,30,17.90
2016,08,15,08,31,17.90
2016,08,15,08,32,17.90
2016,08,15,08,33,18.00
2016,08,15,08,34,18.00
2016,08,15,08,35,18.10
2016,08,15,08,36,18.10
2016,08,15,08,37,18.10
2016,08,15,08,38,18.00
2016,08,15,08,39,18.00
2016,08,15,08,40,18.00
2016,08,15,08,41,18.00
2016,08,15,08,42,18.00
2016,08,15,08,43,17.90
2016,08,15,08,44,17.90
2016,08,15,08,45,17.90
2016,08,15,08,46,17.90
2016,08,15,08,47,17.90
2016,08,15,08,48,17.90
2016,08,15,08,49,17.90
2016,08,15,08,50,17.90
2016,08,15,08,51,17.90
2016,08,15,08,52,17.90
2016,08,15,08,53,17.90
2016,08,15,08,54,17.90
2016,08,15,08,55,17.90
2016,08,15,08,56,17.90
2016,08,15,08,57,17.90
2016,08,15,08,58,17.90
2016,08,15,08,59,17.80
2016,08,15,09,00,17.80
2016,08,15,09,01,17.80
2016,08,15,09,02,17.80
2016,08,15,09,03,17.80
2016,08,15,09,04,17.80
2016,08,15,09,05,17.80
2016,08,15,09,06,17.80
2016,08,15,09,07,17.80
2016,08,15,09,08,17.80
2016,08,15,09,09,17.80
2016,08,15,09,10,17.80
2016,08,15,09,11,17.80
2016,08,15,09,12,17.80
2016,08,15,09,13,17.80
2016,08,15,09,14,17.80
2016,08,15,09,15,17.80
2016,08,15,09,16,17.80
2016,08,15,09,17,17.80
2016,08,15,09,18,17.90
2016,08,15,09,19,17.90
2016,08,15,09,20,17.90
2016,08,15,09,21,18.00
2016,08,15,09,22,18.00
2016,08,15,09,23,18.10
2016,08,15,09,24,18.10
2016,08,15,09,25,18.20
2016,08,15,09,26,18.20
2016,08,15,09,27,18.30
2016,08,15,09,28,18.30
2016,08,15,09,29,18.30
2016,08,15,09,30,18.30
2016,08,15,09,31,18.40
2016,08,15,09,32,18.40
2016,08,15,09,33,18.40
2016,08,15,09,34,18.50
2016,08,15,09,35,18.50
2016,08,15,09,36,18.50
2016,08,15,09,37,18.50
2016,08,15,09,38,18.60
2016,08,15,09,39,18.60
2016,08,15,09,40,18.60
2016,08,15,09,41,18.60
2016,08,15,09,42,18.60
2016,08,15,09,43,18.60
2016,08,15,09,44,18.60
2016,08,15,09,45,18.60
2016,08,15,09,46,18.70
2016,08,15,09,47,18.70
2016,08,15,09,48,18.70
2016,08,15,09,49,18.70
2016,08,15,09,50,18.80
2016,08,15,09,51,18.80
2016,08,15,09,52,18.80
2016,08,15,09,53,18.80
2016,08,15,09,54,18.80
2016,08,15,09,55,18.90
2016,08,15,09,56,18.90
2016,08,15,09,57,19.10
2016,08,15,09,58,19.10
2016,08,15,09,59,19.20
2016,08,15,10,00,19.30
2016,08,15,10,01,19.40
2016,08,15,10,02,19.50
2016,08,15,10,03,19.60
2016,08,15,10,04,19.70
2016,08,15,10,07,19.80
2016,08,15,10,09,19.90
2016,08,15,10,10,19.90
2016,08,15,10,11,20.10
2016,08,15,10,12,20.10
2016,08,15,10,13,20.10
2016,08,15,10,14,20.10
2016,08,15,10,15,20.00
2016,08,15,10,16,20.00
2016,08,15,10,17,20.00
2016,08,15,10,18,20.00
2016,08,15,10,19,20.00
2016,08,15,10,20,20.00
2016,08,15,10,21,20.00
2016,08,15,10,22,20.00
2016,08,15,10,23,20.10
2016,08,15,10,24,20.10
2016,08,15,10,25,20.20
2016,08,15,10,26,20.30
2016,08,15,10,27,20.40
2016,08,15,10,28,20.40
2016,08,15,10,29,20.50
2016,08,15,10,30,20.50
2016,08,15,10,31,20.60
2016,08,15,10,32,20.60
2016,08,15,10,33,20.60
2016,08,15,10,34,20.60
2016,08,15,10,35,20.70
2016,08,15,10,36,20.70
2016,08,15,10,37,20.70
2016,08,15,10,38,20.60
2016,08,15,10,39,20.70
2016,08,15,10,40,20.70
2016,08,15,10,41,20.70
2016,08,15,10,42,20.80
2016,08,15,10,43,20.80
2016,08,15,10,44,20.90
2016,08,15,10,45,20.90
2016,08,15,10,46,20.80
2016,08,15,10,47,20.90
2016,08,15,10,48,20.90
2016,08,15,10,49,20.90
2016,08,15,10,50,21.00
2016,08,15,10,51,21.10
2016,08,15,10,52,21.10
2016,08,15,10,53,21.20
2016,08,15,10,54,21.20
2016,08,15,10,55,21.20
2016,08,15,10,56,21.30
2016,08,15,10,57,21.30
2016,08,15,10,58,21.40
2016,08,15,10,59,21.50
2016,08,15,11,00,21.60
2016,08,15,11,01,21.60
2016,08,15,11,02,21.60
2016,08,15,11,03,21.60
2016,08,15,11,04,21.60
2016,08,15,11,05,21.70
2016,08,15,11,06,21.70
2016,08,15,11,07,21.70
2016,08,15,11,08,21.70
2016,08,15,11,09,21.70
2016,08,15,11,10,21.70
2016,08,15,11,11,21.70
2016,08,15,11,12,21.70
2016,08,15,11,13,21.70
2016,08,15,11,14,21.70
2016,08,15,11,15,21.80
2016,08,15,11,16,21.80
2016,08,15,11,17,21.80
2016,08,15,11,18,21.80
2016,08,15,11,19,21.90
2016,08,15,11,20,21.90
2016,08,15,11,21,22.10
2016,08,15,11,22,22.10
2016,08,15,11,23,22.20
2016,08,15,11,24,22.30
2016,08,15,11,25,22.30
2016,08,15,11,26,22.30
2016,08,15,11,27,22.30
2016,08,15,11,28,22.40
2016,08,15,11,29,22.50
2016,08,15,11,30,22.60
2016,08,15,11,31,22.60
2016,08,15,11,32,22.70
2016,08,15,11,33,22.80
2016,08,15,11,34,22.80
2016,08,15,11,35,22.90
2016,08,15,11,36,22.90
2016,08,15,11,37,23.00
2016,08,15,11,38,23.10
2016,08,15,11,39,23.20
2016,08,15,11,40,23.20
2016,08,15,11,41,23.30
2016,08,15,11,42,23.40
2016,08,15,11,43,23.40
2016,08,15,11,44,23.40
2016,08,15,11,45,23.40
2016,08,15,11,46,23.40
2016,08,15,11,47,23.40
2016,08,15,11,48,23.50
2016,08,15,11,49,23.60
2016,08,15,11,50,23.60
2016,08,15,11,51,23.60
2016,08,15,11,52,23.60
2016,08,15,11,53,23.60
2016,08,15,11,54,23.60
2016,08,15,11,55,23.60
2016,08,15,11,56,23.70
2016,08,15,11,57,23.70
2016,08,15,11,58,23.70
2016,08,15,11,59,23.80
2016,08,15,12,00,23.80
2016,08,15,12,01,23.90
2016,08,15,12,02,24.00
2016,08,15,12,03,24.10
2016,08,15,12,04,24.20
2016,08,15,12,05,24.30
2016,08,15,12,06,24.30
2016,08,15,12,07,24.40
2016,08,15,12,08,24.40
2016,08,15,12,10,24.60
2016,08,15,12,11,24.60
2016,08,15,12,12,24.70
2016,08,15,12,13,24.80
2016,08,15,12,14,24.90
2016,08,15,12,15,24.90
2016,08,15,12,16,24.90
2016,08,15,12,17,24.90
2016,08,15,12,18,25.00
2016,08,15,12,19,25.00
2016,08,15,12,20,25.00
2016,08,15,12,21,25.00
2016,08,15,12,22,25.00
2016,08,15,12,23,25.00
2016,08,15,12,24,25.00
2016,08,15,12,25,25.00
2016,08,15,12,26,25.10
2016,08,15,12,27,25.10
2016,08,15,12,28,25.10
2016,08,15,12,29,25.20
2016,08,15,12,30,25.20
2016,08,15,12,31,25.20
2016,08,15,12,32,25.20
2016,08,15,12,33,25.20
2016,08,15,12,34,25.30
2016,08,15,12,35,25.30
2016,08,15,12,36,25.30
2016,08,15,12,37,25.40
2016,08,15,12,38,25.40
2016,08,15,12,39,25.50
2016,08,15,12,40,25.60
2016,08,15,12,41,25.70
2016,08,15,12,42,25.80
2016,08,15,12,43,25.80
2016,08,15,12,44,25.90
2016,08,15,12,45,25.90
2016,08,15,12,46,25.90
2016,08,15,12,47,25.90
2016,08,15,12,48,25.90
2016,08,15,12,49,26.10
2016,08,15,12,50,26.10
2016,08,15,12,51,26.10
2016,08,15,12,52,26.10
2016,08,15,12,53,26.20
2016,08,15,12,54,26.20
2016,08,15,12,55,26.20
2016,08,15,12,56,26.20
2016,08,15,12,57,26.30
2016,08,15,12,58,26.30
2016,08,15,12,59,26.40
2016,08,15,13,00,26.40
2016,08,15,13,01,26.40
2016,08,15,13,02,26.40
2016,08,15,13,03,26.40
2016,08,15,13,04,26.40
2016,08,15,13,05,26.40
2016,08,15,13,06,26.50
2016,08,15,13,07,26.60
2016,08,15,13,08,26.60
2016,08,15,13,09,26.70
2016,08,15,13,10,26.70
2016,08,15,13,11,26.70
2016,08,15,13,12,26.70
2016,08,15,13,13,26.70
2016,08,15,13,14,26.70
2016,08,15,13,15,26.70
2016,08,15,13,16,26.80
2016,08,15,13,17,26.80
2016,08,15,13,18,26.80
2016,08,15,13,19,26.90
2016,08,15,13,20,26.90
2016,08,15,13,21,26.90
2016,08,15,13,22,26.90
2016,08,15,13,23,26.90
2016,08,15,13,24,26.90
2016,08,15,13,25,27.00
2016,08,15,13,26,27.10
2016,08,15,13,27,27.10
2016,08,15,13,28,27.10
2016,08,15,13,29,27.10
2016,08,15,13,30,27.10
2016,08,15,13,31,27.10
2016,08,15,13,32,27.20
2016,08,15,13,33,27.20
2016,08,15,13,34,27.30
2016,08,15,13,35,27.30
2016,08,15,13,36,27.30
2016,08,15,13,37,27.40
2016,08,15,13,38,27.40
2016,08,15,13,39,27.40
2016,08,15,13,40,27.50
2016,08,15,13,41,27.50
2016,08,15,13,42,27.60
2016,08,15,13,43,27.60
2016,08,15,13,44,27.70
2016,08,15,13,45,27.70
2016,08,15,13,46,27.80
2016,08,15,13,47,27.80
2016,08,15,13,48,27.80
2016,08,15,13,49,27.80
2016,08,15,13,50,27.80
2016,08,15,13,51,27.80
2016,08,15,13,52,27.80
2016,08,15,13,53,27.80
2016,08,15,13,54,27.90
2016,08,15,13,55,27.90
2016,08,15,13,56,27.90
2016,08,15,13,57,28.00
2016,08,15,13,58,28.10
2016,08,15,13,59,28.10
2016,08,15,14,00,28.10
2016,08,15,14,01,28.10
2016,08,15,14,02,28.20
2016,08,15,14,03,28.20
2016,08,15,14,04,28.20
2016,08,15,14,05,28.20
2016,08,15,14,06,28.20
2016,08,15,14,07,28.20
2016,08,15,14,08,28.20
2016,08,15,14,09,28.20
2016,08,15,14,10,28.20
2016,08,15,14,11,28.20
2016,08,15,14,12,28.20
2016,08,15,14,13,28.30
2016,08,15,14,14,28.30
2016,08,15,14,15,28.30
2016,08,15,14,16,28.40
2016,08,15,14,17,28.40
2016,08,15,14,18,28.40
2016,08,15,14,19,28.50
2016,08,15,14,20,28.60
2016,08,15,14,21,28.60
2016,08,15,14,22,28.70
2016,08,15,14,23,28.70
2016,08,15,14,24,28.70
2016,08,15,14,25,28.80
2016,08,15,14,26,28.90
2016,08,15,14,27,28.90
2016,08,15,14,28,28.90
2016,08,15,14,29,28.90
2016,08,15,14,30,29.00
2016,08,15,14,31,29.00
2016,08,15,14,32,28.90
2016,08,15,14,33,28.90
2016,08,15,14,34,28.90
2016,08,15,14,35,28.90
2016,08,15,14,36,28.90
2016,08,15,14,37,28.90
2016,08,15,14,38,28.90
2016,08,15,14,39,28.90
2016,08,15,14,40,28.90
2016,08,15,14,41,28.90
2016,08,15,14,42,28.90
2016,08,15,14,43,28.90
2016,08,15,14,44,28.90
2016,08,15,14,45,28.80
2016,08,15,14,46,28.80
2016,08,15,14,47,28.80
2016,08,15,14,48,28.80
2016,08,15,14,49,28.80
2016,08,15,14,50,28.80
2016,08,15,14,51,28.80
2016,08,15,14,52,28.80
2016,08,15,14,53,28.80
2016,08,15,14,54,28.80
2016,08,15,14,55,28.80
2016,08,15,14,56,28.80
2016,08,15,14,57,28.70
2016,08,15,14,58,28.70
2016,08,15,14,59,28.70
2016,08,15,15,00,28.60
2016,08,15,15,01,28.60
2016,08,15,15,02,28.60
2016,08,15,15,03,28.60
2016,08,15,15,04,28.60
2016,08,15,15,05,28.50
2016,08,15,15,06,28.40
2016,08,15,15,07,28.30
2016,08,15,15,08,28.30
2016,08,15,15,09,28.30
2016,08,15,15,10,28.30
2016,08,15,15,11,28.30
2016,08,15,15,12,28.40
2016,08,15,15,13,28.30
2016,08,15,15,14,28.30
2016,08,15,15,15,28.30
2016,08,15,15,16,28.40
2016,08,15,15,17,28.40
2016,08,15,15,18,28.40
2016,08,15,15,19,28.40
2016,08,15,15,20,28.30
2016,08,15,15,21,28.30
2016,08,15,15,22,28.30
2016,08,15,15,23,28.20
2016,08,15,15,24,28.20
2016,08,15,15,25,28.20
2016,08,15,15,26,28.10
2016,08,15,15,27,28.10
2016,08,15,15,28,28.10
2016,08,15,15,29,28.20
2016,08,15,15,30,28.10
2016,08,15,15,31,28.10
2016,08,15,15,32,28.10
2016,08,15,15,33,28.10
2016,08,15,15,34,28.10
2016,08,15,15,35,28.00
2016,08,15,15,36,27.90
2016,08,15,15,37,27.90
2016,08,15,15,38,27.80
2016,08,15,15,39,27.80
2016,08,15,15,41,27.70
2016,08,15,15,42,27.70
2016,08,15,15,43,27.70
2016,08,15,15,44,27.70
2016,08,15,15,45,27.70
2016,08,15,15,46,27.70
2016,08,15,15,47,27.60
2016,08,15,15,48,27.60
2016,08,15,15,49,27.40
2016,08,15,15,50,27.40
2016,08,15,15,51,27.40
2016,08,15,15,52,27.40
2016,08,15,15,53,27.40
2016,08,15,15,54,27.40
2016,08,15,15,55,27.40
2016,08,15,15,56,27.40
2016,08,15,15,57,27.40
2016,08,15,15,58,27.40
2016,08,15,15,59,27.40
2016,08,15,16,00,27.40
2016,08,15,16,01,27.40
2016,08,15,16,02,27.40
2016,08,15,16,03,27.30
2016,08,15,16,04,27.30
2016,08,15,16,05,27.20
2016,08,15,16,06,27.20
2016,08,15,16,07,27.20
2016,08,15,16,08,27.20
2016,08,15,16,09,27.20
2016,08,15,16,10,27.30
2016,08,15,16,11,27.30
2016,08,15,16,12,27.20
2016,08,15,16,13,27.20
2016,08,15,16,14,27.20
2016,08,15,16,15,27.20
2016,08,15,16,16,27.30
2016,08,15,16,17,27.30
2016,08,15,16,18,27.30
2016,08,15,16,19,27.30
2016,08,15,16,20,27.30
2016,08,15,16,21,27.40
2016,08,15,16,22,27.40
2016,08,15,16,23,27.40
2016,08,15,16,24,27.30
2016,08,15,16,25,27.30
2016,08,15,16,26,27.30
2016,08,15,16,27,27.30
2016,08,15,16,28,27.30
2016,08,15,16,29,27.40
2016,08,15,16,30,27.40
2016,08,15,16,31,27.40
2016,08,15,16,32,27.40
2016,08,15,16,33,27.50
2016,08,15,16,34,27.50
2016,08,15,16,35,27.60
2016,08,15,16,36,27.60
2016,08,15,16,37,27.50
2016,08,15,16,38,27.50
2016,08,15,16,39,27.40
2016,08,15,16,40,27.40
2016,08,15,16,41,27.40
2016,08,15,16,42,27.40
2016,08,15,16,43,27.30
2016,08,15,16,44,27.30
2016,08,15,16,45,27.30
2016,08,15,16,46,27.30
2016,08,15,16,47,27.30
2016,08,15,16,48,27.30
2016,08,15,16,49,27.40
2016,08,15,16,50,27.30
2016,08,15,16,51,27.30
2016,08,15,16,52,27.30
2016,08,15,16,53,27.30
2016,08,15,16,54,27.30
2016,08,15,16,55,27.30
2016,08,15,16,56,27.30
2016,08,15,16,57,27.30
2016,08,15,16,58,27.40
2016,08,15,16,59,27.40
2016,08,15,17,00,27.30
2016,08,15,17,01,27.30
2016,08,15,17,02,27.30
2016,08,15,17,03,27.30
2016,08,15,17,04,27.30
2016,08,15,17,05,27.40
2016,08,15,17,06,27.40
2016,08,15,17,07,27.40
2016,08,15,17,08,27.30
2016,08,15,17,09,27.30
2016,08,15,17,10,27.30
2016,08,15,17,11,27.30
2016,08,15,17,12,27.30
2016,08,15,17,13,27.30
2016,08,15,17,14,27.30
2016,08,15,17,15,27.30
2016,08,15,17,16,27.20
2016,08,15,17,17,27.20
2016,08,15,17,18,27.20
2016,08,15,17,19,27.10
2016,08,15,17,20,27.10
2016,08,15,17,21,27.10
2016,08,15,17,22,27.10
2016,08,15,17,23,27.10
2016,08,15,17,24,27.10
2016,08,15,17,25,27.10
2016,08,15,17,26,27.10
2016,08,15,17,27,27.10
2016,08,15,17,28,27.10
2016,08,15,17,29,27.10
2016,08,15,17,30,27.00
2016,08,15,17,31,27.00
2016,08,15,17,32,27.00
2016,08,15,17,33,27.00
2016,08,15,17,34,27.00
2016,08,15,17,35,27.00
2016,08,15,17,36,27.10
2016,08,15,17,37,27.10
2016,08,15,17,38,27.00